Location: Bégole
(43.1574°N, 0.3291°E)
Time: 06:31:57
(UTC+00:00)

Cosmos 676 Rocket - Pass Details

Date: 28 January 2023
Orbit: 754 x 782 km, 74.0° (Epoch: 26 March)

Event Time Altitude Azimuth Distance (km) Brightness Sun altitude
Rises 19:10:38 0° 191° (SSW) 3,251 7.4 -22.9°
Reaches altitude 10° 19:13:01 10° 189° (S) 2,325 6.6 -23.3°
Maximum altitude 19:18:16 70° 107° (ESE) 829 3.9 -24.3°
Enters shadow 19:18:34 68° 83° (E) 838 3.9 -24.3°
